When you browse on this site, cookies collect data to enhance your experience and personalize the content and advertising you see.
Visit our Privacy Policy to learn more. By continuing to use the site, you agree to this use of cookies and data.
  • In Hungary
  • List of Countries
  • For 7 days
  • Water Temperature
  • Satellite Maps
  • Weather Map
  • News
  • Weather Widgets
  • user-avatar
    Login

    Hourly Weather Chavakkad

    Today, 20 November, Tuesday

    Time Temperature Precipitation Wind Pressure Humidity
    00:00 +26°C° 1.2 mm 2 mps 759 mmHg 95%
    01:00 +26°C° 1.2 mm 2 mps 759 mmHg 94%
    02:00 +26°C° 1.2 mm 2 mps 758 mmHg 94%
    03:00 +25°C° 0.3 mm 2 mps 758 mmHg 94%
    04:00 +25°C° 0.3 mm 2 mps 759 mmHg 93%
    05:00 +25°C° 0 mm 1 mps 758 mmHg 93%
    06:00 +26°C° 0 mm 1 mps 759 mmHg 89%
    07:00 +27°C° 0 mm 2 mps 759 mmHg 85%
    08:00 +28°C° 0 mm 2 mps 759 mmHg 81%
    09:00 +30°C° 0 mm 2 mps 759 mmHg 72%
    10:00 +32°C° 0 mm 1 mps 759 mmHg 63%
    11:00 +35°C° 0 mm 1 mps 759 mmHg 51%
    12:00 +36°C° 0 mm 2 mps 758 mmHg 52%
    13:00 +36°C° 0 mm 2 mps 757 mmHg 53%
    14:00 +36°C° 0 mm 3 mps 757 mmHg 53%
    15:00 +34°C° 0.1 mm 3 mps 757 mmHg 61%
    16:00 +33°C° 0.1 mm 3 mps 757 mmHg 70%
    17:00 +30°C° 0.1 mm 3 mps 757 mmHg 78%
    18:00 +29°C° 0.2 mm 2 mps 757 mmHg 83%
    19:00 +28°C° 0.2 mm 2 mps 758 mmHg 88%
    20:00 +27°C° 0.2 mm 2 mps 759 mmHg 93%
    21:00 +27°C° 0.8 mm 2 mps 759 mmHg 93%
    22:00 +27°C° 0.8 mm 2 mps 759 mmHg 93%
    23:00 +27°C° 0.8 mm 2 mps 759 mmHg 94%

    Tomorrow, 21 November, Wednesday

    Time Temperature Precipitation Wind Pressure Humidity
    00:00 +26°C° 0.6 mm 2 mps 759 mmHg 94%
    01:00 +26°C° 0.6 mm 2 mps 758 mmHg 94%
    02:00 +26°C° 0.6 mm 2 mps 758 mmHg 93%
    03:00 +26°C° 0.2 mm 2 mps 758 mmHg 93%
    04:00 +26°C° 0.2 mm 2 mps 758 mmHg 94%
    05:00 +25°C° 0.2 mm 2 mps 758 mmHg 94%
    06:00 +26°C° 0.1 mm 2 mps 758 mmHg 90%
    07:00 +28°C° 0.1 mm 2 mps 759 mmHg 85%
    08:00 +29°C° 0.1 mm 1 mps 759 mmHg 81%
    09:00 +31°C° 0 mm 2 mps 759 mmHg 72%
    10:00 +34°C° 0 mm 2 mps 759 mmHg 62%
    11:00 +36°C° 0 mm 2 mps 758 mmHg 52%
    12:00 +36°C° 0 mm 3 mps 758 mmHg 53%
    13:00 +35°C° 0 mm 3 mps 757 mmHg 55%
    14:00 +35°C° 0 mm 4 mps 756 mmHg 56%
    15:00 +34°C° 0.2 mm 3 mps 756 mmHg 65%
    16:00 +31°C° 0.2 mm 3 mps 756 mmHg 73%
    17:00 +29°C° 0.2 mm 3 mps 756 mmHg 81%
    18:00 +29°C° 0.1 mm 3 mps 757 mmHg 83%
    19:00 +28°C° 0.1 mm 3 mps 757 mmHg 86%
    20:00 +27°C° 0.1 mm 2 mps 758 mmHg 88%
    21:00 +27°C° 0.1 mm 2 mps 758 mmHg 88%
    22:00 +27°C° 0.1 mm 2 mps 758 mmHg 88%
    23:00 +27°C° 0.1 mm 2 mps 758 mmHg 87%

    Day after tomorrow, 22 November, Thursday

    Time Temperature Precipitation Wind Pressure Humidity
    00:00 +26°C° 0 mm 2 mps 758 mmHg 87%
    01:00 +26°C° 0 mm 1 mps 757 mmHg 87%
    02:00 +26°C° 0 mm 1 mps 757 mmHg 87%
    03:00 +26°C° 0.1 mm 2 mps 757 mmHg 86%
    04:00 +26°C° 0.1 mm 2 mps 757 mmHg 86%
    05:00 +26°C° 0.1 mm 2 mps 757 mmHg 85%
    06:00 +27°C° 0.1 mm 2 mps 757 mmHg 81%
    07:00 +28°C° 0.1 mm 2 mps 758 mmHg 77%
    08:00 +29°C° 0.1 mm 2 mps 758 mmHg 73%
    09:00 +31°C° 0 mm 1 mps 758 mmHg 65%
    10:00 +34°C° 0 mm 1 mps 758 mmHg 58%
    11:00 +36°C° 0 mm 1 mps 758 mmHg 50%
    12:00 +35°C° 0.3 mm 1 mps 757 mmHg 55%
    13:00 +36°C° 0.3 mm 2 mps 756 mmHg 60%
    14:00 +36°C° 0.3 mm 2 mps 756 mmHg 65%
    15:00 +34°C° 0.6 mm 2 mps 756 mmHg 72%
    16:00 +31°C° 0.6 mm 2 mps 756 mmHg 79%
    17:00 +29°C° 0.6 mm 2 mps 756 mmHg 87%
    18:00 +29°C° 0.3 mm 2 mps 756 mmHg 88%
    19:00 +28°C° 0.3 mm 2 mps 757 mmHg 90%
    20:00 +27°C° 0.3 mm 3 mps 758 mmHg 91%
    21:00 +27°C° 0.4 mm 3 mps 758 mmHg 91%
    22:00 +27°C° 0.4 mm 3 mps 758 mmHg 91%
    23:00 +27°C° 0.4 mm 3 mps 758 mmHg 91%

    23 November, Friday

    Time Temperature Precipitation Wind Pressure Humidity
    00:00 +27°C° 0.9 mm 3 mps 758 mmHg 91%
    01:00 +27°C° 0.9 mm 3 mps 758 mmHg 91%
    02:00 +26°C° 0.9 mm 3 mps 758 mmHg 91%
    03:00 +26°C° 0.4 mm 4 mps 758 mmHg 91%
    04:00 +26°C° 0.4 mm 4 mps 758 mmHg 90%
    05:00 +26°C° 0.4 mm 4 mps 758 mmHg 90%
    06:00 +27°C° 0.1 mm 4 mps 759 mmHg 85%
    07:00 +28°C° 0.1 mm 4 mps 760 mmHg 80%
    08:00 +29°C° 0.1 mm 4 mps 760 mmHg 76%
    09:00 +31°C° 0 mm 3 mps 760 mmHg 69%
    10:00 +34°C° 0 mm 3 mps 760 mmHg 62%
    11:00 +35°C° 0 mm 2 mps 760 mmHg 55%
    12:00 +35°C° 0.5 mm 3 mps 759 mmHg 60%
    13:00 +34°C° 0.5 mm 3 mps 758 mmHg 64%
    14:00 +34°C° 0.5 mm 3 mps 757 mmHg 69%
    15:00 +33°C° 2.4 mm 3 mps 757 mmHg 76%
    16:00 +30°C° 2.4 mm 3 mps 758 mmHg 83%
    17:00 +28°C° 2.4 mm 3 mps 758 mmHg 91%
    18:00 +28°C° 2.1 mm 2 mps 759 mmHg 91%
    19:00 +27°C° 2.1 mm 2 mps 759 mmHg 92%
    20:00 +27°C° 2.1 mm 1 mps 760 mmHg 93%
    21:00 +27°C° 0.5 mm 1 mps 760 mmHg 93%
    22:00 +27°C° 0.5 mm 1 mps 760 mmHg 92%
    23:00 +26°C° 0.5 mm 2 mps 760 mmHg 92%

    24 November, Saturday

    Time Temperature Precipitation Wind Pressure Humidity
    00:00 +26°C° 0.1 mm 2 mps 760 mmHg 92%
    01:00 +26°C° 0.1 mm 3 mps 759 mmHg 92%
    02:00 +26°C° 0.1 mm 3 mps 759 mmHg 92%
    03:00 +26°C° 0.1 mm 3 mps 759 mmHg 92%
    04:00 +26°C° 0.1 mm 4 mps 759 mmHg 93%
    05:00 +25°C° 0.1 mm 4 mps 759 mmHg 93%
    06:00 +26°C° 0 mm 4 mps 760 mmHg 88%
    07:00 +27°C° 0 mm 4 mps 761 mmHg 84%
    08:00 +29°C° 0 mm 4 mps 761 mmHg 80%
    09:00 +30°C° 0 mm 3 mps 761 mmHg 71%
    10:00 +33°C° 0 mm 3 mps 761 mmHg 63%
    11:00 +35°C° 0 mm 2 mps 761 mmHg 54%
    12:00 +35°C° 0.2 mm 2 mps 760 mmHg 57%
    13:00 +35°C° 0.2 mm 2 mps 759 mmHg 60%
    14:00 +35°C° 0.2 mm 3 mps 758 mmHg 63%
    15:00 +33°C° 0.6 mm 3 mps 758 mmHg 70%
    16:00 +31°C° 0.6 mm 3 mps 758 mmHg 77%
    17:00 +29°C° 0.6 mm 3 mps 759 mmHg 84%
    18:00 +29°C° 0.3 mm 3 mps 759 mmHg 86%
    19:00 +28°C° 0.3 mm 2 mps 760 mmHg 87%
    20:00 +27°C° 0.3 mm 2 mps 761 mmHg 89%
    21:00 +27°C° 0.2 mm 2 mps 761 mmHg 90%
    22:00 +26°C° 0.2 mm 2 mps 761 mmHg 90%
    23:00 +26°C° 0.2 mm 2 mps 761 mmHg 90%

    25 November, Sunday

    Time Temperature Precipitation Wind Pressure Humidity
    00:00 +26°C° 0.2 mm 2 mps 760 mmHg 91%
    01:00 +25°C° 0.2 mm 2 mps 760 mmHg 91%
    02:00 +25°C° 0.2 mm 2 mps 759 mmHg 92%
    03:00 +25°C° 0.1 mm 2 mps 759 mmHg 92%
    04:00 +25°C° 0.1 mm 2 mps 759 mmHg 92%
    05:00 +25°C° 0.1 mm 2 mps 760 mmHg 91%
    06:00 +26°C° 0 mm 2 mps 760 mmHg 86%
    07:00 +27°C° 0 mm 2 mps 761 mmHg 81%
    08:00 +29°C° 0 mm 2 mps 761 mmHg 76%
    09:00 +31°C° 0 mm 2 mps 761 mmHg 68%
    10:00 +34°C° 0 mm 2 mps 760 mmHg 59%
    11:00 +35°C° 0 mm 1 mps 760 mmHg 51%
    12:00 +36°C° 0.1 mm 2 mps 759 mmHg 51%
    13:00 +36°C° 0.1 mm 2 mps 758 mmHg 52%
    14:00 +36°C° 0.1 mm 3 mps 757 mmHg 53%
    15:00 +34°C° 0.2 mm 3 mps 757 mmHg 62%
    16:00 +31°C° 0.2 mm 3 mps 758 mmHg 72%
    17:00 +29°C° 0.2 mm 3 mps 758 mmHg 82%
    18:00 +28°C° 0.1 mm 2 mps 758 mmHg 85%
    19:00 +28°C° 0.1 mm 2 mps 759 mmHg 88%
    20:00 +27°C° 0.1 mm 2 mps 760 mmHg 91%
    21:00 +26°C° 0.1 mm 2 mps 759 mmHg 92%
    22:00 +26°C° 0.1 mm 2 mps 759 mmHg 92%
    23:00 +26°C° 0.1 mm 2 mps 759 mmHg 92%
    Show more